Погода в Листвянке

Россия / Рязанская область     54°30′26″N   39°57′28″E
темп.,
°C
ветер,
м/с
пор.,
м/с
влажн.,
%
обл.,
%
осадки,
мм/ч
давл.,
гПа
погр.,
м
26 февраля, пт
пт2600:000з489593 0.0 1014175
03:00+1з3810096 0.1 1013192
06:00+2з510100100 1.0 1011272
09:00+2з613100100 1.4 1009381
12:00+2з613100100 0.0 1007423
15:00+2зюз713100100 0.1 1005349
18:00+2з71599100 0.1 1004453
21:00+2зсз7168996 0.1 1005717
27 февраля, сб
сб2700:00+2з7158897 0.0 1003674
03:00+1з7148891 0.1 1003546
06:00+1з7149297 0.0 1001723
09:00+1з7149399 0.1 1001693
12:000сз7129998 0.4 1002660
15:00−6ссз7108899 1.1 1004796
18:00−9ссз51089100 0.1 1007685
21:00−11ссз41192100 0.1 1010497
28 февраля, вс
вс2800:00−12ссз51093100 0.0 1012441
03:00−13ссз499499 0.1 1014316
06:00−14ссз489697 0.0 1015237
09:00−13ссз489390 0.1 1016422
12:00−9ссз469099 0.0 1017526
15:00−7ссз4789100 0.1 1018702
18:00−8ссз359599 0.1 1018117
21:00−9с339690 0.1 102050
1 марта, пн
пн100:00−11с239692 0.0 102241
03:00−13с239665 0.0 102325
06:00−14ссз239739 0.0 102523
09:00−12ссз239632 0.0 102689
12:00−7зсз239065 0.0 1027288
15:00−4з359182 0.1 1026547
18:00−5з3793100 0.1 1025301
21:00−6зюз4893100 0.1 1025190
2 марта, вт
вт200:00−5зюз51094100 0.1 1022274
03:00−3зюз61393100 0.1 1020388
06:00−1з61294100 0.4 1017445
09:00+1зсз61298100 0.9 1015588
12:00+1зсз71399100 0.4 1014590
15:00+1зсз612100100 0.4 1013614
18:000зсз6129698 0.1 1012576
21:00−1сз6139199 0.2 1013548